[[{"header":{"parameterUnit":"m.s-1","parameterCategory":1,"la1":30.2991,"la2":30.254,"lo1":-89.0895,"lo2":-89.0444,"dy":0.0017,"dx":0.0017,"nx":28,"ny":28,"refTime":"2024-09-02T03:00:00:Z","depth":0,"parameterNumber":2,"parameterNumberName":"U-component_of_WINDS"},"data":[0,0,0,0,0,0,0,0,0,0,0,0,0,0,0,0,0,0,0,0,0,0,0,0,0,0,0,0,0,0,0,0,0,0,0,0,0,0,0,0,0,0,0,0,0,0,0,0,0,0,0,0,0,0,0,0,0,0,-0.8605,-0.8605,0,-0.8636,-0.8636,-0.8636,-0.8609,-0.8607,-0.8606,-0.8605,-0.8637,-0.8639,-0.8641,0,0,0,0,0,0,0,0,0,0,0,0,0,-0.8522,-0.8524,-0.8605,-0.8605,-0.8605,-0.8636,-0.8636,-0.8637,-0.8609,-0.8607,-0.8606,-0.8605,-0.8637,-0.8639,-0.8641,0,0,0,0,0,0,0,0,0,0,0,0,0,-0.8556,-0.8524,-0.8605,-0.8595,-0.8595,-0.8636,-0.8636,-0.8637,-0.8609,-0.8607,-0.8606,-0.8604,-0.8636,-0.8639,-0.8642,-0.8693,0,0,-0.865,-0.8652,0,0,0,0,0,0,0,0,-0.8554,-0.8559,-0.8596,-0.8596,-0.8595,-0.8617,-0.8619,-0.8656,-0.8609,-0.8604,-0.8605,-0.8603,-0.8632,-0.8635,-0.8644,-0.8695,-0.8696,-0.8651,-0.8652,-0.8654,-0.8654,0,0,0,0,0,0,0,-0.8552,-0.8558,-0.8617,-0.8597,-0.8596,-0.859,-0.8593,-0.8626,-0.8627,-0.8604,-0.8602,-0.8606,-0.8631,-0.8642,-0.8645,-0.8697,-0.8651,-0.8653,-0.8655,-0.8656,-0.8793,-0.8794,0,0,0,0,0,0,-0.855,-0.8556,-0.8616,-0.8618,-0.857,-0.8593,-0.8596,-0.8611,-0.8626,-0.8627,-0.8608,-0.8605,-0.8638,-0.8642,-0.8646,-0.8709,-0.8654,-0.8656,-0.8658,-0.8791,-0.8793,-0.8795,0,0,0,0,0,0,-0.8549,-0.8556,-0.8615,-0.8586,-0.8593,-0.8596,-0.8614,-0.8613,-0.8623,-0.8629,-0.8629,-0.8618,-0.8637,-0.8642,-0.8682,-0.8709,-0.8658,-0.866,-0.8789,-0.8791,-0.8794,-0.8834,0,0,0,0,0,0,-0.8546,-0.8556,-0.8575,-0.8587,-0.8595,-0.865,-0.8615,-0.8615,-0.8628,-0.8625,-0.8639,-0.864,-0.8636,-0.8678,-0.8685,-0.8712,-0.8662,-0.8786,-0.879,-0.8793,-0.883,-0.8838,-0.8844,0,0,0,0,0,-0.8544,-0.8585,-0.8576,-0.8584,-0.8619,-0.8652,-0.8656,-0.8651,-0.8631,-0.8651,-0.8654,-0.8639,-0.8705,-0.8682,-0.869,-0.8719,-0.8784,-0.8789,-0.8793,-0.8827,-0.8836,-0.8844,0,0,0,0,0,0,-0.8576,-0.8586,-0.8577,-0.8623,-0.8637,-0.8647,-0.8672,-0.866,-0.868,-0.8676,-0.8668,-0.8672,-0.8714,-0.872,-0.8695,-0.877,-0.8742,-0.8748,-0.8765,-0.8774,-0.878,-0.8778,-0.8665,0,0,0,0,0,-0.8588,-0.8613,-0.8621,-0.8661,-0.8669,-0.8669,-0.8683,-0.8678,-0.8692,-0.8697,-0.8704,-0.8718,-0.8742,-0.8758,-0.878,-0.8831,-0.8834,-0.8854,-0.8861,-0.8867,-0.8872,-0.8901,-0.891,-0.8809,-0.8809,-0.8809,0,0,-0.8614,-0.8623,-0.8639,-0.8668,-0.8678,-0.8705,-0.8674,-0.8703,-0.8723,-0.8702,-0.874,-0.8746,-0.8761,-0.8807,-0.8827,-0.8813,-0.8901,-0.8872,-0.8877,-0.8879,-0.8906,-0.8915,-0.8924,-0.8812,-0.8812,-0.8811,0,0,-0.8675,-0.8684,-0.8719,-0.873,-0.8745,-0.8746,-0.8754,-0.8766,-0.8769,-0.8808,-0.8792,-0.8816,-0.8857,-0.8869,-0.8881,-0.8948,-0.8935,-0.8955,-0.8992,-0.902,-0.9028,-0.9035,-0.906,-0.9068,-0.8961,-0.8961,-0.8961,0,-0.8705,-0.8745,-0.8738,-0.8769,-0.8782,-0.8764,-0.88,-0.8811,-0.8833,-0.8843,-0.8827,-0.8879,-0.8888,-0.8937,-0.8953,-0.8963,-0.8973,-0.8954,-0.9027,-0.9034,-0.9041,-0.9064,-0.9073,-0.8963,-0.8963,-0.8963,-0.8962,0,-0.8782,-0.881,-0.8836,-0.8858,-0.8875,-0.8908,-0.8906,-0.8924,-0.8917,-0.8919,-0.8959,-0.897,-0.8995,-0.9006,-0.8999,-0.9054,-0.9045,-0.9028,-0.8999,-0.9053,-0.9075,-0.9084,-0.8967,-0.8966,-0.8965,-0.8965,0,0,-0.8864,-0.8882,-0.8892,-0.8903,-0.8919,-0.8941,-0.8973,-0.8997,-0.9013,-0.9029,-0.9057,-0.9093,-0.9078,-0.9091,-0.9086,-0.911,-0.9164,-0.909,-0.9091,-0.9104,-0.9226,-0.9239,-0.9249,-0.9155,-0.9157,-0.9158,-0.9225,0,-0.8926,-0.8982,-0.8978,-0.9032,-0.9058,-0.9041,-0.907,-0.9083,-0.9087,-0.9109,-0.9113,-0.9139,-0.9116,-0.9124,-0.9147,-0.9152,-0.9188,-0.9147,-0.9181,-0.9183,-0.9179,-0.926,-0.9274,-0.9336,-0.9233,-0.9234,-0.9236,0,-0.9006,-0.9025,-0.9082,-0.9096,-0.9106,-0.9132,-0.9154,-0.9176,-0.9192,-0.9192,-0.9208,-0.9199,-0.9232,-0.9203,-0.9249,-0.9222,-0.9236,-0.924,-0.9242,-0.9246,-0.9213,-0.9267,-0.9356,-0.9366,-0.9249,-0.9248,-0.9247,0,-0.9061,-0.9101,-0.9141,-0.915,-0.9166,-0.9185,-0.9193,-0.9206,-0.9222,-0.9241,-0.9251,-0.9275,-0.9288,-0.9306,-0.9304,-0.9283,-0.9352,-0.9322,-0.9354,-0.9355,-0.937,-0.9369,-0.9463,-0.9378,-0.9378,-0.9378,-0.9377,0,-0.9131,-0.9167,-0.9166,-0.919,-0.9229,-0.9224,-0.9263,-0.9269,-0.9281,-0.9307,-0.9294,-0.9318,-0.9314,-0.9339,-0.9337,-0.9377,-0.9382,-0.9384,-0.9384,-0.9386,-0.9386,-0.9395,-0.9391,-0.938,-0.938,-0.9379,-0.9379,0,-0.9199,-0.92,-0.9242,-0.9254,-0.9258,-0.9287,-0.9298,-0.9321,-0.9324,-0.9356,-0.9363,-0.9367,-0.9395,-0.9395,-0.9427,-0.9427,-0.9475,-0.9469,-0.947,-0.9469,-0.9502,-0.9499,-0.9606,-0.962,-0.9525,-0.9526,-0.9526,0,-0.9244,-0.9271,-0.9287,-0.9303,-0.9312,-0.9339,-0.9354,-0.935,-0.9367,-0.9387,-0.9409,-0.9436,-0.9457,-0.9503,-0.9509,-0.9534,-0.9529,-0.9565,-0.9533,-0.9534,-0.9531,-0.9529,-0.9532,-0.9571,-0.9572,-0.9573,-0.9574,0,-0.9325,-0.9324,-0.9347,-0.9371,-0.939,-0.9408,-0.9425,-0.9439,-0.9437,-0.9457,-0.9486,-0.9503,-0.9536,-0.9563,-0.9588,-0.9596,-0.9585,-0.9584,-0.9593,-0.9595,-0.9595,-0.9597,-0.9488,-0.9581,-0.9581,-0.958,-0.958,-0.9579,-0.9383,-0.9407,-0.9422,-0.9448,-0.9461,-0.9477,-0.95,-0.9505,-0.9529,-0.9556,-0.9552,-0.9585,-0.9601,-0.9632,-0.9643,-0.9669,-0.9656,-0.9669,-0.9672,-0.9676,-0.968,-0.9591,-0.9673,-0.9673,-0.9672,-0.9672,-0.9672,0,-0.9463,-0.9472,-0.9497,-0.9521,-0.9542,-0.953,-0.9548,-0.9567,-0.9596,-0.9611,-0.9633,-0.9667,-0.9694,-0.9702,-0.9728,-0.9747,-0.9743,-0.9755,-0.9753,-0.9756,-0.9689,-0.9679,-0.9758,-0.9758,-0.9758,-0.9758,-0.9758,-0.9758,-0.9508,-0.9547,-0.9549,-0.9595,-0.9603,-0.9635,-0.9647,-0.9662,-0.9675,-0.9713,-0.9736,-0.9741,-0.9754,-0.9781,-0.9806,-0.9807,-0.9818,-0.9832,-0.9832,-0.9769,-0.976,-0.9752,-0.9743,-0.9834,-0.9834,-0.9897,-0.9897,-0.9898]},{"header":{"parameterUnit":"m.s-1","parameterCategory":1,"la1":30.2991,"la2":30.254,"lo1":-89.0895,"lo2":-89.0444,"dy":0.0017,"dx":0.0017,"nx":28,"ny":28,"refTime":"2024-09-02T03:00:00:Z","depth":0,"parameterNumber":3,"parameterNumberName":"V-component_of_WINDS"},"data":[0,0,0,0,0,0,0,0,0,0,0,0,0,0,0,0,0,0,0,0,0,0,0,0,0,0,0,0,0,0,0,0,0,0,0,0,0,0,0,0,0,0,0,0,0,0,0,0,0,0,0,0,0,0,0,0,0,0,-2.2953,-2.2953,0,-2.3023,-2.3024,-2.3025,-2.302,-2.3019,-2.3018,-2.3017,-2.3089,-2.3092,-2.3094,0,0,0,0,0,0,0,0,0,0,0,0,0,-2.2813,-2.2815,-2.2953,-2.2953,-2.2954,-2.3023,-2.3024,-2.3025,-2.302,-2.3019,-2.3018,-2.3017,-2.3088,-2.3091,-2.3095,0,0,0,0,0,0,0,0,0,0,0,0,0,-2.2878,-2.2816,-2.2952,-2.296,-2.2962,-2.3023,-2.3024,-2.3025,-2.3021,-2.3019,-2.3017,-2.3016,-2.3087,-2.3091,-2.3095,-2.3153,0,0,-2.3108,-2.311,0,0,0,0,0,0,0,0,-2.2874,-2.2883,-2.2958,-2.296,-2.2961,-2.3011,-2.3001,-2.3068,-2.3021,-2.2998,-2.3017,-2.3015,-2.3064,-2.307,-2.3087,-2.3157,-2.316,-2.3109,-2.3111,-2.3113,-2.3115,0,0,0,0,0,0,0,-2.2869,-2.288,-2.2981,-2.2959,-2.2961,-2.296,-2.2968,-2.3014,-2.3039,-2.3,-2.3,-2.3008,-2.3065,-2.3083,-2.3089,-2.3161,-2.3109,-2.3113,-2.3115,-2.3117,-2.3282,-2.3284,0,0,0,0,0,0,-2.2863,-2.2876,-2.2978,-2.2983,-2.2913,-2.2964,-2.2972,-2.2997,-2.3039,-2.3043,-2.301,-2.3008,-2.3076,-2.3084,-2.3091,-2.3162,-2.3113,-2.3117,-2.312,-2.328,-2.3282,-2.3284,0,0,0,0,0,0,-2.286,-2.2872,-2.2975,-2.2929,-2.2942,-2.2968,-2.2996,-2.2999,-2.3017,-2.3046,-2.305,-2.3023,-2.3075,-2.3085,-2.3138,-2.3165,-2.3119,-2.3123,-2.3278,-2.3281,-2.3283,-2.3305,0,0,0,0,0,0,-2.2856,-2.2871,-2.2894,-2.293,-2.2945,-2.3021,-2.2997,-2.3002,-2.3025,-2.3023,-2.306,-2.3065,-2.3075,-2.3132,-2.3142,-2.317,-2.3127,-2.3276,-2.3279,-2.3283,-2.3302,-2.3308,-2.3313,0,0,0,0,0,-2.2851,-2.2897,-2.2895,-2.2907,-2.2973,-2.3023,-2.3031,-2.3042,-2.3027,-2.305,-2.3068,-2.3063,-2.316,-2.3137,-2.3149,-2.3178,-2.3274,-2.3278,-2.3282,-2.3299,-2.3306,-2.3313,0,0,0,0,0,0,-2.2863,-2.2901,-2.29,-2.2958,-2.2987,-2.3022,-2.3051,-2.305,-2.3084,-2.3081,-2.3093,-2.3101,-2.3154,-2.3172,-2.3145,-2.3237,-2.3215,-2.3222,-2.3224,-2.3231,-2.3236,-2.3231,-2.313,0,0,0,0,0,-2.2872,-2.2909,-2.2941,-2.2989,-2.3004,-2.3025,-2.3047,-2.3053,-2.3083,-2.3096,-2.3118,-2.3147,-2.3185,-2.3209,-2.3244,-2.3304,-2.3312,-2.333,-2.3336,-2.334,-2.3346,-2.3379,-2.3387,-2.3298,-2.3298,-2.3297,0,0,-2.2891,-2.2917,-2.294,-2.2992,-2.3015,-2.3054,-2.3035,-2.3076,-2.3105,-2.3102,-2.3153,-2.3171,-2.3205,-2.3261,-2.3287,-2.3277,-2.3372,-2.3345,-2.3349,-2.3352,-2.3384,-2.3392,-2.34,-2.33,-2.33,-2.3299,0,0,-2.2946,-2.297,-2.3013,-2.3037,-2.3072,-2.3086,-2.3096,-2.3131,-2.3143,-2.3195,-2.3194,-2.3227,-2.3291,-2.3315,-2.3336,-2.3401,-2.3398,-2.3412,-2.3441,-2.3474,-2.3481,-2.3487,-2.3511,-2.3519,-2.3418,-2.3418,-2.3418,0,-2.2966,-2.3024,-2.3035,-2.3077,-2.31,-2.3099,-2.3143,-2.3166,-2.3211,-2.3227,-2.3215,-2.3295,-2.3318,-2.338,-2.3396,-2.3413,-2.3425,-2.3408,-2.3479,-2.3485,-2.3491,-2.3514,-2.3523,-2.3419,-2.3419,-2.3419,-2.3419,0,-2.3046,-2.3086,-2.3117,-2.3161,-2.3188,-2.323,-2.3248,-2.3273,-2.3277,-2.3292,-2.3345,-2.3373,-2.3414,-2.3429,-2.3433,-2.3493,-2.3486,-2.3476,-2.3455,-2.3501,-2.3523,-2.3531,-2.3421,-2.3421,-2.342,-2.342,0,0,-2.311,-2.316,-2.3171,-2.3192,-2.3231,-2.3262,-2.3305,-2.3346,-2.3367,-2.3399,-2.3435,-2.3489,-2.3481,-2.3504,-2.3511,-2.3539,-2.359,-2.3527,-2.3528,-2.3538,-2.3657,-2.3664,-2.3674,-2.3588,-2.359,-2.3591,-2.3655,0,-2.3169,-2.3245,-2.3256,-2.3323,-2.336,-2.3361,-2.3398,-2.3426,-2.3441,-2.3475,-2.3492,-2.353,-2.3516,-2.3531,-2.3559,-2.3578,-2.3614,-2.3573,-2.3622,-2.3623,-2.3613,-2.3685,-2.3693,-2.3751,-2.3663,-2.3664,-2.3665,0,-2.3248,-2.3282,-2.3353,-2.3388,-2.3404,-2.3437,-2.3475,-2.3508,-2.354,-2.3549,-2.3576,-2.3579,-2.3624,-2.36,-2.3661,-2.3633,-2.3654,-2.3666,-2.3669,-2.3674,-2.3647,-2.3692,-2.377,-2.3779,-2.3679,-2.3678,-2.3677,0,-2.3288,-2.3351,-2.3402,-2.3419,-2.3461,-2.3484,-2.3503,-2.3534,-2.3558,-2.3591,-2.3607,-2.3645,-2.3666,-2.3696,-2.371,-2.3692,-2.3771,-2.3748,-2.378,-2.3779,-2.3796,-2.3795,-2.3879,-2.3809,-2.3809,-2.3809,-2.3809,0,-2.3353,-2.3396,-2.342,-2.3451,-2.35,-2.3513,-2.356,-2.3578,-2.3606,-2.364,-2.3643,-2.3675,-2.3691,-2.3726,-2.3737,-2.3787,-2.3796,-2.3805,-2.3807,-2.3805,-2.3804,-2.3819,-2.3815,-2.3811,-2.3811,-2.381,-2.381,0,-2.3405,-2.3423,-2.3478,-2.3514,-2.3524,-2.3558,-2.3588,-2.3618,-2.3634,-2.3678,-2.3689,-2.3713,-2.3754,-2.3771,-2.3821,-2.3829,-2.3886,-2.3885,-2.3875,-2.3876,-2.3906,-2.3903,-2.4002,-2.4016,-2.3937,-2.3938,-2.3939,0,-2.3446,-2.3479,-2.3518,-2.3542,-2.3561,-2.3599,-2.3623,-2.3638,-2.3663,-2.3703,-2.3728,-2.377,-2.3804,-2.387,-2.3892,-2.393,-2.3931,-2.3963,-2.3936,-2.3933,-2.3932,-2.393,-2.3933,-2.3968,-2.3968,-2.3969,-2.3969,0,-2.3515,-2.3523,-2.3558,-2.3597,-2.3627,-2.3658,-2.3689,-2.3708,-2.3727,-2.3756,-2.3798,-2.3824,-2.3876,-2.3917,-2.3958,-2.3977,-2.3977,-2.3978,-2.3987,-2.3985,-2.3978,-2.3983,-2.3888,-2.3975,-2.3975,-2.3974,-2.3974,-2.3974,-2.3563,-2.3593,-2.3625,-2.3665,-2.369,-2.3719,-2.3749,-2.3768,-2.3804,-2.3848,-2.3854,-2.3899,-2.3931,-2.3985,-2.4006,-2.4042,-2.4034,-2.4047,-2.4051,-2.4054,-2.4056,-2.3972,-2.4049,-2.4049,-2.4049,-2.4049,-2.4049,0,-2.3633,-2.3654,-2.3691,-2.3734,-2.3765,-2.3763,-2.3797,-2.3823,-2.3863,-2.3893,-2.3926,-2.3975,-2.4016,-2.4041,-2.4081,-2.4105,-2.4106,-2.4115,-2.4114,-2.4118,-2.4061,-2.4049,-2.4114,-2.4114,-2.4114,-2.4114,-2.4114,-2.4114,-2.3673,-2.3724,-2.3735,-2.3798,-2.3819,-2.3864,-2.3883,-2.391,-2.3934,-2.3989,-2.4022,-2.4039,-2.4067,-2.411,-2.4146,-2.4153,-2.4168,-2.4178,-2.4184,-2.4129,-2.4122,-2.4116,-2.4105,-2.4181,-2.4181,-2.4238,-2.4239,-2.4239]}]]